This is the latest recevied weather packets stored in our database for station/object APPOWX. If no packets are shown the sender has not sent any weather packets the latest 10 day(s).
| Time | Temp. | Humidity | Pressure | Rain* | Wind** | Luminosity | Snow |
|---|---|---|---|---|---|---|---|
| 1778270903 | 19.44° C | 37% | 1016.4 hPa | 0 mm | - | - | - |
| 1778270843 | 20° C | 36% | 1016.3 hPa | 0 mm | - | - | - |
| 1778270783 | 20° C | 39% | 1016.3 hPa | 0 mm | - | - | - |
| 1778270723 | 20° C | 36% | 1016.4 hPa | 0 mm | - | - | - |
| 1778270663 | 20° C | 39% | 1016.2 hPa | 0 mm | - | - | - |
| 1778270603 | 19.44° C | 38% | 1016.3 hPa | 0 mm | - | - | - |
| 1778270543 | 19.44° C | 37% | 1016.3 hPa | 0 mm | - | - | - |
| 1778270483 | 19.44° C | 38% | 1016.4 hPa | 0 mm | - | - | - |
| 1778270423 | 20° C | 35% | 1016.3 hPa | 0 mm | - | - | - |
| 1778270363 | 20° C | 38% | 1016.4 hPa | 0 mm | - | - | - |
| 1778270302 | 20° C | 43% | 1016.5 hPa | 0 mm | - | - | - |
| 1778270243 | 20° C | 39% | 1016.3 hPa | 0 mm | - | - | - |
| 1778270183 | 20° C | 38% | 1016.4 hPa | 0 mm | - | - | - |
| 1778270122 | 19.44° C | 41% | 1016.3 hPa | 0 mm | - | - | - |
| 1778270063 | 19.44° C | 39% | 1016.2 hPa | 0 mm | - | - | - |
| 1778270003 | 19.44° C | 37% | 1016.2 hPa | 0 mm | - | - | - |
| 1778269942 | 19.44° C | 35% | 1016.4 hPa | 0 mm | - | - | - |
| 1778269882 | 19.44° C | 37% | 1016.6 hPa | 0 mm | - | - | - |
| 1778269823 | 19.44° C | 38% | 1016.3 hPa | 0 mm | - | - | - |
| 1778269762 | 19.44° C | 35% | 1016.2 hPa | 0 mm | - | - | - |
| 1778269702 | 19.44° C | 37% | 1016.5 hPa | 0 mm | - | - | - |
| 1778269642 | 19.44° C | 37% | 1016.5 hPa | 0 mm | - | - | - |
| 1778269582 | 19.44° C | 38% | 1016.5 hPa | 0 mm | - | - | - |
| 1778269522 | 19.44° C | 41% | 1016.4 hPa | 0 mm | - | - | - |
| 1778269462 | 19.44° C | 41% | 1016.5 hPa | 0 mm | - | - | - |
* Rain latest hour (hover to see other rain measurements)
** Current wind speed in m/s (hover to see current wind gust speed)